sat.trackr.live / text

‹ back to catalog

STARLINK-33767

NORAD 63722 · 2025-087AB

PAYLOAD ACTIVE UNKNOWN

§ Identity

Operator
Country
US
Launch date
2025-04-28
Launch site
AFWTR
Launch vehicle
Mass (kg)
RCS (m²)

Purposes: comms

External: N2YO · Heavens-Above · Gunter

§ Orbital elements

Epoch: 2026-09-20T20:13:16.624992Z

Period
93.85 min
Inclination
53.1614°
Eccentricity
0.0000739
Mean motion
15.34397803 rev/d
Perigee alt
462.2 km
Apogee alt
463.2 km
Semi-major
6,840.8 km
B*
5.9916e-4
RAAN
32.0096°
Arg perigee
45.8433°
Mean anomaly
314.2631°
Rev number
7,909

§ Raw data

STARLINK-337671 63722U 25087AB  26263.84255353  .00019920  00000+0  59916-3 0  99992 63722  53.1614  32.0096 0000739  45.8433 314.2631 15.34397803 79096

JSON: /api/v1/satellites/63722 · /tle

For live sub-satellite position, see the globe view (requires WebGL).

§ Visibility from observer

Set your observer location to see the next 7 days of passes ≥ 10°. The values pass through the URL so the page stays shareable.

No JS? Fill the form by hand. The geolocation button needs JavaScript.